This is the latest recevied weather packets stored in our database for station/object SQ7IQO. If no packets are shown the sender has not sent any weather packets the latest 10 day(s).
| Time | Temp. | Humidity | Pressure | Rain* | Wind** | Luminosity | Snow |
|---|---|---|---|---|---|---|---|
| 1787914839 | 24.44° C | 40% | 1019.7 hPa | 0 mm | 1.34 m/s, ° | - | - |
| 1787914779 | 24.44° C | 40% | 1019.7 hPa | 0 mm | 0.45 m/s, ° | - | - |
| 1787914719 | 24.44° C | 40% | 1019.7 hPa | 0 mm | 0.89 m/s, ° | - | - |
| 1787914660 | 24.44° C | 41% | 1019.7 hPa | 0 mm | 0.89 m/s, ° | - | - |
| 1787914599 | 24.44° C | 42% | 1019.8 hPa | 0 mm | 0.89 m/s, ° | - | - |
| 1787914540 | 24.44° C | 41% | 1019.7 hPa | 0 mm | 0.45 m/s, ° | - | - |
| 1787914479 | 24.44° C | 40% | 1019.8 hPa | 0 mm | 0.89 m/s, ° | - | - |
| 1787914419 | 25° C | 41% | 1019.8 hPa | 0 mm | 0.89 m/s, ° | - | - |
| 1787914360 | 24.44° C | 42% | 1019.8 hPa | 0 mm | 0 m/s | - | - |
| 1787914300 | 24.44° C | 38% | 1019.8 hPa | 0 mm | 0.89 m/s, ° | - | - |
| 1787914240 | 24.44° C | 41% | 1019.9 hPa | 0 mm | 0.89 m/s, ° | - | - |
| 1787914180 | 25° C | 42% | 1019.8 hPa | 0 mm | 0.89 m/s, ° | - | - |
| 1787914120 | 25° C | 42% | 1019.8 hPa | 0 mm | 0.45 m/s, ° | - | - |
| 1787914060 | 25° C | 40% | 1019.8 hPa | 0 mm | 0.45 m/s, ° | - | - |
| 1787914000 | 25° C | 40% | 1019.8 hPa | 0 mm | 0.45 m/s, ° | - | - |
| 1787913940 | 25° C | 41% | 1019.9 hPa | 0 mm | 0.45 m/s, ° | - | - |
| 1787913880 | 25° C | 42% | 1019.9 hPa | 0 mm | 0 m/s | - | - |
| 1787913820 | 25° C | 42% | 1019.9 hPa | 0 mm | 0 m/s | - | - |
| 1787913760 | 25° C | 42% | 1019.8 hPa | 0 mm | 0 m/s | - | - |
| 1787913699 | 25° C | 42% | 1019.8 hPa | 0 mm | 0 m/s | - | - |
| 1787913639 | 25° C | 43% | 1019.9 hPa | 0 mm | 0.45 m/s, ° | - | - |
| 1787913579 | 25° C | 40% | 1019.9 hPa | 0 mm | 0.89 m/s, ° | - | - |
| 1787913519 | 25° C | 40% | 1019.8 hPa | 0 mm | 0.89 m/s, ° | - | - |
| 1787913460 | 25° C | 41% | 1019.9 hPa | 0 mm | 0 m/s | - | - |
| 1787913400 | 25° C | 39% | 1019.9 hPa | 0 mm | 0.45 m/s, ° | - | - |
* Rain latest hour (hover to see other rain measurements)
** Current wind speed in m/s (hover to see current wind gust speed)